sat.trackr.live / text

‹ back to catalog

STARLINK-37456

NORAD 69300 · 2026-119E

PAYLOAD ACTIVE UNKNOWN

§ Identity

Operator
Country
US
Launch date
2026-05-30
Launch site
AFWTR
Launch vehicle
Mass (kg)
RCS (m²)

Purposes: comms

External: N2YO · Heavens-Above · Gunter

§ Orbital elements

Epoch: 2026-09-19T19:14:41.030592Z

Period
93.91 min
Inclination
97.2835°
Eccentricity
0.0000584
Mean motion
15.33458679 rev/d
Perigee alt
465.1 km
Apogee alt
465.9 km
Semi-major
6,843.6 km
B*
6.1400e-4
RAAN
287.5064°
Arg perigee
129.7376°
Mean anomaly
230.3919°
Rev number
1,855

§ Raw data

STARLINK-374561 69300U 26119E   26262.80186378  .00019807  00000+0  61400-3 0  99942 69300  97.2835 287.5064 0000584 129.7376 230.3919 15.33458679 18555

JSON: /api/v1/satellites/69300 · /tle

For live sub-satellite position, see the globe view (requires WebGL).

§ Visibility from observer

Set your observer location to see the next 7 days of passes ≥ 10°. The values pass through the URL so the page stays shareable.

No JS? Fill the form by hand. The geolocation button needs JavaScript.